Wind_Speed
39 38 38 37 37 34 32 31 30 29 28 27 26 24 22 21 20 19 19 18 16 15 14 13 13 14 14 14 14 12 10 12 12 11 8 8 8 10 11 12 18 25 17 21 12 9 8 6 21 28 37 46 34 37
35 42 38 38 37 36 34 32 30 29 29 27 26 24 23 22 21 20 19 19 18 17 14 16 18 16 18 19 17 16 15 14 9 9 7 8 13 17 19 21 21 19 17 19 16 23 28 36 39 38 40 38 34 36
23 35 45 40 35 35 35 33 32 32 29 28 27 25 24 23 22 21 21 20 20 19 19 21 19 18 20 21 20 19 18 18 18 18 19 21 25 26 23 23 25 33 30 30 32 30 31 31 31 29 33 33 37 39
15 26 34 46 42 37 36 35 33 32 30 30 29 28 27 25 24 23 23 22 22 21 22 21 16 21 24 22 21 21 21 20 21 23 25 28 27 25 28 32 38 32 31 29 31 30 30 31 30 32 36 34 42 43
12 18 27 32 41 40 41 38 34 32 31 31 30 29 27 26 25 24 23 23 23 22 16 17 22 27 25 23 21 26 25 23 23 25 27 29 33 32 39 38 35 18 26 22 32 30 32 32 32 30 35 41 40 36
13 12 21 31 33 37 44 37 37 35 34 30 28 27 27 27 26 26 26 27 26 25 26 28 27 28 27 25 23 28 28 24 26 32 34 31 28 27 29 26 20 29 24 27 30 31 31 34 36 39 39 37 33 29
15 14 15 23 31 39 39 40 40 39 35 32 30 29 27 27 27 28 29 26 26 25 24 25 26 31 27 25 26 28 28 30 29 31 36 33 27 26 31 32 37 32 28 25 22 29 34 34 36 35 35 29 31 33
17 15 16 16 22 31 44 39 35 36 34 31 27 27 27 28 28 30 29 27 25 22 23 18 21 25 25 19 15 19 24 28 34 34 34 30 28 25 30 30 30 24 27 24 29 34 33 30 32 33 31 33 38 38
18 16 15 16 18 22 33 45 41 35 31 31 30 29 29 31 32 33 29 28 27 26 26 29 32 25 23 21 21 26 25 25 31 32 30 27 25 22 18 23 24 31 28 31 30 28 30 31 31 31 34 37 41 44
16 14 13 17 17 26 26 29 43 41 38 37 33 34 31 34 31 28 29 28 33 35 36 33 38 31 27 25 20 19 20 23 18 20 19 22 27 26 29 30 28 25 27 24 25 28 32 33 34 37 40 42 46 50
16 13 10 15 19 25 26 32 32 39 43 37 41 36 38 34 35 34 27 20 21 21 24 31 31 29 30 18 18 11 10 9 8 14 15 13 23 23 24 21 23 23 25 27 29 30 32 34 38 41 43 48 48 46
17 16 12 14 10 8 19 27 34 39 34 38 37 32 32 27 16 13 15 13 11 15 12 12 15 16 11 9 10 11 10 9 9 10 9 10 19 20 20 20 21 23 25 26 27 29 32 35 39 46 47 45 43 42
17 17 16 17 14 11 10 10 22 25 28 29 22 17 12 12 10 11 13 11 10 7 5 7 9 15 13 15 13 11 9 10 10 7 7 14 19 17 16 17 20 23 25 27 29 32 38 43 44 42 41 40 39 40
22 18 17 16 20 15 14 10 11 14 14 13 8 4 7 5 5 10 11 8 12 12 13 13 11 10 14 12 12 7 10 8 6 9 18 17 14 11 13 18 23 26 27 32 36 41 43 41 39 38 37 38 39 40
27 23 19 17 26 19 16 17 17 15 16 10 6 5 10 10 11 6 4 8 12 15 15 14 13 13 13 10 9 10 6 7 8 10 10 9 10 16 22 25 27 31 34 39 41 39 39 39 38 37 36 37 38 38
27 23 18 14 23 26 21 15 15 14 17 7 8 7 4 7 10 10 8 8 8 12 15 14 14 8 13 8 9 9 6 8 12 13 12 11 19 25 28 32 34 37 39 37 39 39 36 36 37 37 37 36 37 37
32 26 21 18 19 20 21 20 17 17 11 11 14 15 14 13 7 8 10 10 10 12 14 12 8 10 8 8 9 11 18 19 19 15 13 22 28 33 35 35 33 32 36 36 35 34 35 33 34 35 36 35 35 35
30 27 23 20 18 18 21 22 22 16 14 15 13 13 13 11 12 12 12 11 11 12 17 19 17 16 10 11 14 16 16 16 14 20 28 32 34 34 33 31 33 33 33 33 33 31 30 31 31 33 35 35 33 34
28 28 27 24 22 18 16 13 15 8 13 15 15 15 13 12 13 15 15 14 14 14 17 21 15 17 20 22 22 18 18 21 27 32 34 33 31 30 32 32 31 31 31 30 28 29 30 28 28 31 35 35 33 34
29 29 30 27 22 18 14 10 14 16 11 11 11 12 12 13 13 14 14 15 16 19 23 26 26 24 22 21 22 24 27 29 30 29 29 28 30 32 31 30 28 30 29 26 27 27 28 28 30 32 34 33 32 32
25 26 24 20 18 16 12 8 9 10 12 13 13 13 13 13 15 16 17 18 20 26 28 23 21 21 22 25 26 28 28 28 28 29 31 33 32 32 31 28 28 28 26 25 26 28 30 32 33 33 32 30 30 31
24 20 18 16 15 14 13 12 11 11 11 9 8 11 12 13 14 16 18 22 26 24 20 19 20 21 20 20 22 25 27 28 28 29 28 28 31 32 31 28 24 23 23 26 30 33 34 34 34 33 31 30 29 29
13 14 15 15 14 12 10 15 14 12 8 9 9 11 13 13 15 16 20 22 20 12 13 16 17 18 20 22 23 25 27 28 28 29 29 29 30 27 24 21 21 25 28 31 34 33 35 34 33 32 31 31 31 29
19 16 16 11 11 9 10 9 11 13 15 14 12 12 12 13 14 16 20 20 14 15 17 18 19 20 21 22 24 27 28 25 25 26 26 26 26 25 25 27 29 31 32 31 33 34 34 33 31 30 31 31 30 30
14 12 7 9 8 9 10 11 12 11 12 9 10 9 9 9 13 18 22 19 16 15 14 17 18 19 23 25 26 27 26 28 30 32 29 28 31 33 34 32 31 33 34 33 31 32 33 31 29 29 30 30 30 29
9 7 7 6 7 10 10 8 8 11 11 10 7 8 8 10 13 15 22 15 15 19 16 18 21 27 28 28 28 28 30 32 34 37 34 33 32 30 27 28 29 29 28 27 30 32 29 27 28 29 28 28 29 29
6 4 7 6 4 3 6 8 7 5 5 6 8 9 10 9 12 15 15 15 14 16 20 24 32 36 36 35 35 35 33 32 32 33 33 33 32 27 26 28 28 28 28 29 30 28 27 28 27 27 27 28 30 30
4 3 4 4 3 6 7 4 5 8 10 13 16 17 11 13 14 16 17 23 28 34 38 39 40 40 40 38 36 35 35 37 38 38 36 33 31 30 30 29 29 28 27 26 26 27 27 26 26 27 28 29 29 29
3 4 3 3 5 7 10 12 13 15 17 19 21 24 26 28 31 33 36 38 40 43 43 43 41 40 38 37 36 37 38 38 38 36 32 29 27 26 27 27 27 26 26 26 27 26 25 26 27 28 28 29 29 29
7 9 11 13 15 17 17 18 19 20 22 24 26 28 30 32 35 37 39 40 41 42 44 44 43 39 36 34 33 34 33 32 30 28 26 27 27 27 27 28 27 26 25 23 23 23 24 26 27 28 28 29 29 29
17 15 16 17 18 16 17 20 24 25 27 28 28 30 29 29 32 34 35 35 31 29 31 32 34 34 34 34 33 30 27 27 26 26 26 28 26 27 28 26 22 20 20 21 23 24 25 27 28 29 30 30 29 29
15 17 20 22 19 17 20 23 25 28 27 24 22 22 24 28 29 27 21 21 22 25 25 25 23 22 22 24 24 25 24 24 24 24 24 24 23 22 20 19 19 20 21 23 25 27 29 28 28 28 29 28 28 28
11 12 15 21 23 22 20 20 23 25 24 22 23 21 18 16 18 21 21 22 23 22 19 20 21 19 17 17 18 20 21 21 22 21 19 19 18 17 17 18 20 22 24 26 27 26 26 27 27 27 27 26 25 25
Wind_Direction
203 204 205 207 209 210 209 208 208 210 213 215 216 215 214 217 219 220 219 222 225 227 231 232 235 239 241 243 251 257 261 259 271 273 277 278 257 267 275 290 301 296 289 278 271 262 288 296 304 310 306 307 304 309
210 208 209 207 209 211 211 211 212 211 212 216 219 220 219 220 222 222 224 228 233 233 237 240 240 242 242 245 247 248 250 259 262 265 266 270 273 273 281 278 300 287 289 279 270 270 284 301 297 297 300 305 311 313
218 215 209 208 209 213 213 214 214 216 216 216 218 223 224 224 226 228 227 228 234 239 245 245 245 245 246 245 244 247 251 263 269 270 269 274 273 279 277 286 298 299 294 281 283 291 305 303 290 295 299 300 311 310
234 222 216 217 217 220 217 215 217 217 215 217 220 223 226 226 227 228 229 231 233 238 242 245 245 243 245 246 247 247 253 262 267 270 276 275 274 278 279 286 296 298 291 292 295 307 306 304 308 296 304 310 310 311
230 230 221 217 218 224 219 214 214 217 218 219 219 221 224 225 226 228 231 233 235 233 243 248 250 249 252 257 260 256 256 269 278 278 274 274 277 279 287 291 284 295 299 289 305 303 297 294 291 305 311 310 309 311
227 243 224 217 222 221 215 216 214 216 219 222 221 219 222 225 227 229 231 234 235 239 245 254 261 259 259 260 263 257 260 267 281 282 279 275 273 281 286 269 261 294 288 297 291 289 286 294 304 306 306 311 315 321
235 234 232 220 220 219 215 217 217 216 218 219 224 226 225 227 229 229 235 240 241 245 252 262 268 265 264 259 257 255 263 275 273 274 273 271 273 280 270 261 289 296 293 290 289 290 293 297 304 308 315 317 320 324
238 236 237 234 225 219 210 209 216 212 207 213 218 223 225 226 228 230 233 237 239 243 248 245 251 257 267 264 260 263 271 268 268 270 271 270 277 276 273 277 284 285 294 281 292 295 298 300 307 315 315 314 318 319
238 245 240 241 228 231 215 205 214 211 211 214 217 223 228 230 233 234 232 237 242 242 246 252 255 259 254 261 280 271 261 262 265 262 265 272 273 259 261 271 268 285 274 281 292 294 297 304 311 314 314 315 313 313
230 242 241 226 225 218 223 220 202 209 217 209 217 217 222 234 238 236 227 233 232 245 236 242 257 250 263 278 241 262 264 257 245 256 264 257 253 258 266 273 279 278 284 294 296 301 308 310 311 311 313 313 312 315
222 233 233 220 221 209 209 215 218 205 202 207 215 216 225 225 225 225 226 221 218 227 243 242 239 255 263 249 265 258 246 229 241 252 238 246 258 272 276 274 277 286 296 299 301 304 306 308 310 311 311 314 316 317
219 223 218 174 159 197 214 196 202 204 199 202 201 209 199 204 199 198 195 202 211 217 221 214 226 236 246 283 258 242 245 262 241 247 224 251 263 263 263 270 283 291 294 297 302 305 307 307 308 311 315 317 317 317
218 219 218 190 168 157 172 194 180 176 177 180 164 159 177 177 182 189 194 177 195 200 182 189 247 279 269 242 236 240 230 230 238 229 236 264 278 271 275 290 295 296 298 299 303 303 305 308 312 317 317 315 315 316
209 217 218 217 175 175 179 180 185 180 174 193 210 200 201 191 197 226 231 235 242 256 263 266 260 243 241 220 222 228 230 230 229 236 262 272 279 294 299 292 289 291 294 302 305 307 310 314 314 315 314 315 317 319
210 218 222 231 187 170 174 180 181 187 179 192 182 214 231 227 231 248 255 252 256 259 258 253 250 245 239 223 216 218 217 219 229 244 259 270 284 292 289 289 293 299 301 304 307 310 311 312 313 316 316 317 317 318
192 197 201 210 195 183 184 181 185 184 194 182 194 211 224 228 236 240 242 244 241 235 238 237 233 220 220 218 213 211 214 228 258 262 266 286 292 290 292 295 299 303 305 306 309 309 311 313 314 315 317 317 316 318
198 206 198 194 199 186 189 191 195 200 207 215 231 241 261 270 259 258 261 261 257 245 223 214 222 213 219 224 213 221 240 261 262 262 276 283 286 291 296 302 303 303 304 305 306 308 310 311 312 315 317 317 317 320
189 190 193 199 206 200 199 199 193 198 208 221 231 241 245 247 246 251 252 246 242 230 229 237 247 237 226 250 257 264 253 244 260 281 283 288 294 299 301 300 302 302 302 302 304 305 307 309 313 317 321 319 317 323
186 192 194 200 207 196 191 195 199 210 229 239 245 250 251 250 250 249 247 249 250 250 251 254 250 258 266 266 268 267 273 281 277 282 290 294 298 298 299 301 301 302 300 301 302 304 305 306 311 318 323 325 320 322
195 195 195 193 179 185 196 206 213 229 242 242 246 248 246 242 242 240 243 251 258 257 253 253 265 272 284 292 288 281 278 282 287 290 292 296 298 299 301 302 300 298 297 297 299 301 299 301 306 309 316 320 319 321
179 175 174 171 173 185 194 210 207 226 240 249 252 250 245 241 243 248 252 251 251 252 259 271 288 292 285 283 284 286 288 290 297 300 300 301 301 300 302 299 296 293 294 299 302 304 305 306 309 310 310 314 316 322
161 166 170 176 185 194 212 222 229 240 240 242 230 231 241 244 245 246 251 251 255 265 280 285 279 279 284 288 290 293 296 296 294 294 296 296 297 298 298 295 290 291 294 298 301 304 308 308 308 312 311 312 312 315
182 188 184 186 193 208 227 228 227 227 224 232 234 242 248 255 258 261 263 268 279 291 277 275 281 286 292 295 296 295 291 289 291 292 293 293 296 297 295 292 294 296 297 301 304 306 307 310 311 309 311 311 312 310
187 177 185 195 206 208 222 217 226 232 237 241 245 250 262 266 271 269 270 276 289 279 275 280 284 288 291 294 292 290 292 294 294 296 293 291 293 296 299 297 300 301 301 300 302 305 310 310 310 309 309 310 310 309
173 176 192 204 206 218 220 222 225 230 240 250 254 256 261 270 272 278 279 290 304 289 283 282 283 294 299 295 292 293 291 288 290 292 295 296 296 296 297 299 298 297 298 300 303 306 306 304 304 305 307 309 310 310
177 181 187 176 194 210 219 229 236 241 244 245 242 247 262 269 275 278 291 311 298 296 285 275 285 299 301 297 298 293 287 286 287 291 298 298 300 296 295 299 298 297 293 292 297 304 304 303 304 306 308 310 311 310
171 173 201 215 221 270 248 240 237 215 207 225 249 263 275 268 287 297 301 295 280 269 272 279 289 295 298 297 297 298 295 294 296 299 301 302 304 294 291 300 305 303 300 299 300 300 301 303 304 307 310 313 314 314
203 222 230 225 215 218 225 210 228 265 267 265 271 274 269 273 278 284 276 272 272 274 278 282 286 290 294 295 294 292 289 289 293 296 298 299 296 291 293 297 299 298 297 296 297 300 301 303 306 309 310 312 313 312
247 237 232 251 262 264 266 270 276 286 293 283 277 276 278 280 280 278 278 280 283 286 289 290 290 290 291 291 290 289 291 292 293 294 294 295 292 291 292 294 299 298 292 292 296 298 299 303 305 307 308 309 309 309
277 277 277 277 276 278 286 286 284 281 277 277 280 281 282 284 285 287 288 289 289 291 292 292 291 289 287 286 287 289 290 291 290 288 289 292 291 294 292 294 297 295 293 293 295 298 301 302 303 304 305 306 307 306
282 282 277 277 280 287 282 274 276 279 281 282 285 286 292 288 287 287 289 296 304 307 306 303 298 293 290 289 289 288 287 288 287 284 288 288 284 290 293 294 293 290 289 292 295 298 299 300 301 302 304 305 306 306
272 274 276 279 284 285 285 284 283 282 287 289 291 288 287 286 286 291 294 302 309 320 321 319 316 309 302 293 288 286 284 285 285 283 283 283 284 286 286 286 289 293 296 298 299 300 301 302 303 304 305 305 305 305
280 284 290 292 293 294 291 287 288 290 291 292 294 294 287 284 292 296 298 303 304 306 310 314 310 311 314 311 306 299 294 292 289 286 284 282 279 279 280 285 290 294 297 299 301 303 305 306 307 308 308 308 308 308
Height
3016 3024 3031 3038 3045 3052 3058 3063 3069 3074 3079 3084 3089 3093 3097 3100 3103 3107 3110 3113 3116 3119 3122 3124 3125 3127 3129 3131 3132 3134 3136 3135 3136 3136 3137 3137 3136 3136 3135 3135 3134 3132 3130 3126 3124 3123 3116 3113 3111 3110 3105 3099 3095 3091
3012 3019 3027 3034 3040 3047 3053 3059 3065 3070 3074 3079 3085 3089 3093 3096 3100 3103 3107 3110 3113 3117 3119 3120 3121 3123 3125 3126 3128 3129 3131 3131 3132 3133 3134 3133 3133 3131 3130 3128 3129 3124 3124 3123 3120 3114 3113 3110 3105 3101 3097 3092 3086 3084
3008 3014 3021 3029 3035 3041 3048 3054 3060 3065 3070 3075 3080 3084 3088 3092 3096 3099 3103 3106 3109 3112 3115 3116 3118 3119 3120 3122 3123 3125 3126 3126 3127 3128 3128 3127 3126 3124 3123 3121 3120 3117 3116 3113 3111 3108 3106 3103 3099 3094 3090 3086 3081 3076
3004 3009 3013 3021 3028 3035 3042 3049 3055 3060 3065 3070 3074 3079 3083 3087 3091 3094 3098 3101 3104 3107 3109 3111 3111 3113 3115 3116 3117 3119 3120 3121 3122 3122 3121 3120 3120 3116 3114 3115 3111 3112 3108 3104 3100 3100 3095 3093 3090 3086 3082 3078 3074 3069
3002 3004 3008 3014 3021 3029 3036 3042 3049 3055 3060 3064 3069 3074 3078 3082 3086 3089 3092 3095 3098 3104 3102 3104 3106 3108 3109 3110 3112 3113 3115 3115 3115 3115 3113 3113 3112 3110 3105 3104 3101 3102 3101 3097 3093 3092 3088 3085 3081 3078 3075 3071 3066 3062
2999 3001 3004 3009 3015 3022 3028 3035 3042 3048 3054 3059 3063 3068 3072 3076 3080 3083 3086 3089 3092 3094 3097 3098 3099 3100 3103 3105 3105 3107 3108 3109 3109 3106 3104 3103 3104 3104 3096 3093 3094 3096 3094 3091 3087 3083 3082 3078 3076 3073 3069 3065 3060 3056
2996 2999 3001 3004 3009 3015 3022 3029 3035 3041 3047 3052 3058 3062 3066 3070 3074 3077 3081 3084 3087 3090 3092 3091 3089 3089 3094 3097 3099 3100 3101 3101 3100 3097 3093 3095 3096 3096 3090 3086 3088 3088 3085 3082 3080 3078 3076 3072 3069 3066 3062 3058 3054 3050
2993 2995 2999 3001 3004 3008 3015 3022 3028 3034 3040 3046 3052 3056 3060 3063 3067 3070 3073 3077 3080 3084 3085 3083 3081 3084 3086 3088 3091 3093 3092 3092 3089 3087 3086 3087 3087 3085 3080 3079 3079 3078 3077 3076 3073 3070 3068 3065 3062 3059 3055 3051 3047 3043
2991 2993 2995 2997 3000 3004 3008 3014 3021 3027 3033 3039 3045 3050 3053 3056 3058 3061 3069 3072 3075 3078 3075 3072 3072 3076 3078 3082 3085 3084 3082 3082 3082 3078 3079 3080 3077 3075 3074 3073 3072 3071 3070 3068 3066 3064 3061 3058 3056 3052 3049 3045 3040 3035
2989 2991 2992 2994 2996 3000 3004 3008 3014 3021 3027 3033 3039 3042 3043 3046 3052 3058 3062 3064 3063 3063 3063 3060 3063 3068 3073 3075 3075 3078 3074 3074 3071 3070 3071 3068 3067 3068 3066 3066 3064 3063 3063 3062 3060 3058 3055 3052 3049 3045 3041 3037 3032 3026
2987 2990 2991 2991 2994 2997 3000 3004 3008 3014 3019 3023 3026 3031 3036 3041 3046 3048 3052 3054 3054 3052 3051 3053 3056 3060 3064 3068 3068 3069 3066 3065 3063 3064 3065 3059 3058 3060 3058 3058 3059 3058 3057 3055 3053 3051 3047 3044 3040 3036 3032 3028 3021 3015
2985 2988 2992 2993 2994 2995 2997 3000 3004 3008 3010 3014 3018 3025 3028 3032 3036 3039 3040 3044 3042 3044 3045 3049 3053 3055 3058 3061 3062 3061 3060 3061 3058 3056 3057 3052 3054 3053 3053 3054 3053 3052 3051 3049 3047 3044 3041 3037 3033 3027 3022 3016 3011 3005
2982 2986 2990 2993 2994 2995 2998 2998 3000 3004 3006 3010 3014 3018 3020 3024 3027 3030 3030 3032 3036 3039 3043 3046 3049 3052 3054 3056 3057 3058 3056 3055 3053 3052 3049 3049 3047 3047 3049 3049 3049 3046 3044 3041 3039 3036 3032 3027 3022 3017 3012 3006 3001 2996
2978 2983 2987 2991 2993 2996 2998 3000 3003 3004 3008 3010 3011 3015 3019 3020 3022 3024 3028 3032 3035 3037 3040 3043 3045 3048 3047 3049 3050 3050 3049 3048 3047 3045 3044 3044 3043 3044 3045 3044 3043 3041 3038 3035 3031 3027 3022 3017 3012 3006 3002 2997 2991 2986
2975 2980 2984 2987 2991 2993 2997 3001 3003 3005 3008 3011 3014 3016 3017 3020 3021 3023 3025 3029 3032 3033 3035 3037 3040 3044 3044 3044 3043 3043 3043 3041 3041 3039 3038 3039 3040 3040 3039 3037 3036 3034 3031 3027 3023 3017 3014 3009 3004 2998 2993 2989 2983 2978
2971 2976 2980 2985 2987 2991 2996 2998 3002 3005 3007 3010 3012 3014 3017 3019 3020 3022 3024 3026 3028 3030 3032 3034 3035 3037 3037 3037 3037 3036 3037 3035 3035 3035 3035 3035 3035 3032 3031 3029 3027 3024 3021 3017 3014 3009 3004 2999 2994 2990 2986 2981 2976 2971
2967 2972 2977 2983 2987 2990 2994 2997 3000 3003 3006 3007 3009 3011 3014 3017 3019 3021 3023 3024 3025 3028 3029 3030 3031 3031 3031 3030 3030 3030 3029 3030 3029 3029 3029 3029 3026 3024 3023 3021 3018 3015 3012 3008 3005 3001 2996 2991 2987 2983 2978 2974 2968 2963
2964 2971 2976 2982 2986 2989 2991 2993 2997 3000 3002 3004 3007 3010 3012 3014 3016 3018 3019 3021 3023 3024 3026 3027 3028 3026 3025 3025 3024 3024 3024 3024 3023 3023 3021 3019 3018 3017 3014 3011 3009 3006 3002 2998 2995 2992 2988 2984 2980 2976 2970 2965 2961 2956
2964 2969 2975 2979 2983 2987 2990 2994 2996 2997 2999 3002 3006 3008 3009 3011 3012 3013 3015 3017 3018 3020 3020 3020 3021 3020 3021 3021 3020 3019 3019 3017 3016 3015 3013 3012 3010 3008 3005 3002 2999 2996 2991 2989 2987 2984 2980 2977 2973 2968 2963 2957 2953 2949
2962 2968 2972 2976 2981 2985 2989 2992 2995 2996 2998 3001 3002 3004 3005 3007 3009 3010 3011 3013 3013 3013 3012 3011 3012 3014 3017 3017 3015 3013 3011 3009 3007 3006 3005 3004 3002 2999 2996 2992 2990 2986 2983 2981 2978 2976 2972 2969 2966 2961 2956 2951 2946 2942
2961 2964 2970 2974 2979 2984 2988 2989 2992 2995 2996 2998 3000 3001 3001 3003 3004 3006 3007 3007 3006 3004 3004 3006 3008 3009 3008 3007 3006 3005 3003 3001 2999 2997 2994 2992 2992 2989 2987 2983 2980 2977 2975 2973 2971 2968 2965 2961 2957 2952 2948 2944 2940 2935
2962 2967 2972 2975 2979 2983 2986 2988 2990 2991 2994 2994 2996 2996 2998 2999 3000 3000 3001 3000 2999 3001 3003 3002 3002 3001 3001 3000 2999 2997 2996 2993 2992 2989 2986 2984 2982 2980 2978 2974 2971 2969 2968 2966 2963 2959 2956 2952 2948 2944 2939 2936 2933 2929
2964 2968 2972 2976 2980 2982 2984 2985 2987 2988 2990 2991 2993 2993 2993 2994 2995 2996 2995 2995 2996 2997 2996 2996 2996 2995 2994 2994 2993 2991 2988 2986 2984 2981 2979 2976 2974 2972 2970 2967 2964 2962 2960 2958 2954 2950 2947 2943 2939 2935 2931 2928 2925 2922
2965 2968 2971 2975 2977 2978 2980 2982 2984 2986 2987 2987 2988 2989 2990 2990 2991 2990 2989 2989 2993 2992 2991 2990 2989 2988 2988 2987 2985 2982 2980 2977 2975 2974 2971 2969 2967 2965 2963 2960 2958 2955 2951 2947 2944 2941 2937 2934 2930 2927 2924 2920 2917 2913
2966 2969 2972 2971 2974 2977 2978 2980 2980 2981 2982 2984 2985 2986 2986 2987 2987 2985 2984 2985 2986 2985 2985 2985 2984 2983 2982 2979 2977 2975 2972 2969 2967 2965 2965 2963 2959 2956 2953 2951 2948 2944 2941 2938 2935 2933 2929 2925 2922 2919 2916 2912 2909 2905
2965 2967 2970 2970 2971 2973 2974 2975 2976 2977 2979 2981 2982 2983 2983 2983 2983 2981 2979 2981 2980 2980 2979 2978 2977 2976 2974 2971 2968 2966 2964 2961 2958 2956 2955 2952 2949 2945 2943 2940 2938 2935 2932 2929 2926 2924 2920 2917 2914 2911 2908 2905 2901 2897
2964 2966 2967 2968 2969 2971 2971 2972 2974 2976 2977 2978 2979 2980 2980 2979 2977 2977 2976 2976 2975 2973 2972 2971 2968 2966 2963 2961 2959 2956 2953 2951 2948 2946 2944 2941 2938 2935 2933 2931 2928 2925 2922 2919 2917 2914 2911 2909 2906 2903 2900 2897 2893 2889
2962 2964 2966 2968 2968 2969 2971 2972 2974 2975 2975 2975 2976 2975 2975 2974 2974 2974 2972 2970 2967 2965 2963 2961 2958 2955 2953 2950 2947 2944 2942 2940 2937 2935 2933 2931 2928 2925 2924 2921 2919 2916 2913 2911 2909 2906 2904 2901 2898 2895 2892 2889 2886 2883
2962 2964 2965 2966 2967 2968 2969 2970 2970 2971 2971 2970 2969 2968 2967 2966 2964 2962 2960 2958 2956 2953 2950 2948 2946 2943 2941 2938 2935 2932 2930 2928 2925 2923 2921 2920 2918 2916 2914 2912 2909 2907 2905 2903 2900 2898 2895 2893 2890 2887 2884 2882 2879 2875
2961 2962 2963 2963 2964 2964 2965 2965 2964 2964 2962 2961 2960 2959 2958 2956 2953 2951 2948 2945 2942 2939 2936 2933 2930 2928 2927 2925 2924 2921 2919 2916 2914 2912 2910 2909 2908 2906 2904 2903 2901 2898 2896 2894 2893 2891 2888 2886 2883 2880 2877 2874 2871 2868
2957 2957 2958 2957 2957 2959 2958 2957 2955 2955 2954 2953 2952 2950 2948 2945 2941 2938 2936 2934 2932 2928 2925 2921 2917 2914 2913 2912 2911 2909 2907 2906 2904 2903 2901 2900 2898 2897 2895 2893 2892 2890 2889 2887 2885 2883 2881 2878 2875 2872 2869 2866 2863 2860
2953 2953 2953 2952 2952 2951 2950 2948 2947 2946 2945 2943 2943 2940 2938 2935 2932 2931 2929 2927 2924 2920 2915 2911 2909 2906 2904 2902 2901 2899 2898 2896 2895 2893 2892 2891 2889 2888 2887 2886 2885 2884 2882 2880 2878 2875 2873 2870 2867 2864 2861 2858 2855 2852
2948 2948 2947 2946 2944 2943 2942 2940 2938 2936 2936 2935 2933 2932 2930 2928 2926 2924 2922 2919 2917 2914 2911 2907 2904 2902 2899 2897 2895 2893 2891 2889 2887 2886 2884 2883 2882 2881 2880 2879 2878 2877 2875 2872 2870 2867 2864 2862 2859 2856 2853 2850 2847 2844